Regional Weather Roundup
Issued by NWS Sterling, VA

Home | Current Version | Previous Version | Graphics & Text | Print | Product List | Glossary On
Versions: 1 2 3 4 5 6 7 8 9 10 11 12 13 14 15 16 17 18 19 20 21 22 23 24 25 26 27 28 29 30 31 32 33 34 35 36 37 38 39 40 41 42 43 44 45 46 47 48 49 50
000
ASUS41 KLWX 240410
RWRLWX

REGIONAL WEATHER ROUNDUP
NATIONAL WEATHER SERVICE BALTIMORE MD/WASHINGTON DC
1200 AM EDT SUN JUL 24 2016

Note: "FAIR" indicates few or no clouds below 12,000 feet
with no significant weather and/or obstructions to visibility.
 TC=TEMPERATURE CELSIUS

 * =Non NWS site. Station does not report precipitation (e.g. rain,
    snow, etc.), thunder, or fog.

DCZ001-MDZ009-015-VAZ040>042-051-053>054-240500-
WASHINGTON METRO

CITY           SKY/WX    TMP DP  RH WIND       PRES   REMARKS
WASHINGTON NAT MOCLDY    86  75  69 SE3       29.92S HX  95
DULLES         FAIR      77  73  87 CALM      29.94R
ANDREWS AFB    CLOUDY    79  74  83 S5        29.92S
FT BELVOIR     FAIR      78  74  88 CALM      29.93R
QUANTICO       FAIR      84  75  74 CALM      29.93S HX  92
COLLEGE PARK*  FAIR      79  72  78 CALM      29.92S
LEESBURG*      FAIR      81  73  78 CALM      29.95S
MANASSAS*      FAIR      75  73  94 S3        29.94R
GAITHERSBURG*  CLOUDY    75  72  88 CALM      29.98S

$$

MDZ006>007-011-014-240500-
BALTIMORE METRO

CITY           SKY/WX    TMP DP  RH WIND       PRES   REMARKS
BWI AIRPORT    PTCLDY    74  72  93 W5        29.92R
MD SCIENCE CTR   N/A     83  70  64 MISG      29.92S
MARTIN STATE   CLOUDY    81  73  78 W3        29.92S
ANNAPOLIS      PTCLDY    79  76  90 CALM      29.90F
FORT MEADE*    PTCLDY    72  70  94 CALM      29.95S

$$

MDZ012-015-019>023-240500-
MARYLAND EASTERN SHORE

CITY           SKY/WX    TMP DP  RH WIND       PRES   REMARKS
OCEAN CITY     PTCLDY    83  76  79 SW6       29.92R HX  91
SALISBURY      CLEAR     81  78  91 SW3       29.92R
BAY BRIDGE AP* PTCLDY    79  73  83 CALM      29.91R
CAMBRIDGE*     CLOUDY    79  75  89 CALM      29.92R
EASTON*        CLOUDY    78  78 100 CALM      29.95S

$$

MDZ017>025-240500-
SOUTHERN MARYLAND

CITY           SKY/WX    TMP DP  RH WIND       PRES   REMARKS
PATUXENT RIVER CLEAR     85  74  69 SW9       29.92R HX  92
ST INIGOES     PTCLDY    87  77  72 SW6       29.92S HX  99
LEONARDTOWN*   CLEAR     82  73  74 SW3       29.94S

$$

MDZ003>005-240500-
NORTH CENTRAL MARYLAND

CITY           SKY/WX    TMP DP  RH WIND       PRES   REMARKS
FREDERICK*     CLOUDY    73  73 100 CALM      29.97R
HAGERSTOWN APT CLEAR     80  70  71 NE5       29.97R

$$

MDZ501>502-240500-
WESTERN MARYLAND

CITY           SKY/WX    TMP DP  RH WIND       PRES   REMARKS
OAKLAND*       PTCLDY    70  68  94 W6        30.14R
CUMBERLAND*    MOCLDY    79  72  78 CALM      30.04R

$$

VAZ025>031-240500-
SHENANDOAH VALLEY

CITY           SKY/WX    TMP DP  RH WIND       PRES   REMARKS
WINCHESTER*    FAIR      79  70  73 CALM      29.98R
FRONT ROYAL*   FAIR      79  72  78 CALM      29.97R
LURAY*         FAIR      73  73 100 CALM      30.00R
NEW MARKET*    FAIR     N/A N/A N/A CALM      29.99R
STAUNTON*      FAIR      74  71  88 CALM      30.04S
WAYNESBORO*    CLOUDY    81  69  67 CALM      30.04R

$$

WVZ021-048>050-054>055-240500-
EASTERN WEST VIRGINIA PANHANDLE

CITY           SKY/WX    TMP DP  RH WIND       PRES   REMARKS
MARTINSBURG    FAIR      77  69  76 CALM      29.96R
PETERSBURG*    FAIR      74  71  89 CALM      30.02R

$$

VAZ036>039-050-240500-
CENTRAL FOOTHILLS

CITY           SKY/WX    TMP DP  RH WIND       PRES   REMARKS
CHARLOTTESVILL FAIR      81  72  74 S3        29.97R
CULPEPER*      FAIR      77  73  87 CALM      29.96R
ORANGE*          N/A     79  77  94 CALM      29.98R
GORDONSVILLE*  FAIR      77  75  93 CALM      29.96R
WARRENTON*     FAIR      77  71  80 CALM      29.95R

$$

VAZ055>057-240500-
NORTH AND CENTRAL PIEDMONT

CITY           SKY/WX    TMP DP  RH WIND       PRES   REMARKS
FREDERICKSBRG* FAIR      80  72  75 CALM      29.93F
STAFFORD*      FAIR      81  71  71 NW3       29.98S

$$

NCZ024-NYZ072-PAZ021-071-VAZ022-071-240500-
OTHER REGIONAL OBSERVATIONS

CITY           SKY/WX    TMP DP  RH WIND       PRES   REMARKS
NEW YORK CITY  CLEAR     85  55  35 VRB5      29.92R
PHILADELPHIA   PTCLDY    79  71  76 SW8       29.92R
PITTSBURGH     PTCLDY    78  66  66 N5        30.03R
ROANOKE        FAIR      79  70  74 CALM      30.05R
RICHMOND       MOCLDY    83  75  77 SW10      29.94S HX  90
RALEIGH        PTCLDY    80  72  76 SW8       29.99S

$$

ANZ530>537-240500-
MARINE OBSERVATIONS

STATION/POSITION TIME  TEMP    WIND        PRES
                       AIR SEA DIR/SP/G
                 (UTC) (F)     (DEG/KT/KT) (MB)
THOMAS PT LIGHT  0400   83 82  250/  5/  6 1014.2R
BALT KEY BRIDGE  0342   80     280/  6/  7 1012.9
COVE POINT       0348   85     340/  2/  3 1013.8
LEWISETTA        0342   85 87  230/  8/ 10 1013.0
SOLOMONS ISLAND  0348   86 84  230/  9/ 11   N/A
PINEY POINT      0342          240/  9/ 10   N/A

$$




USA.gov is the U.S. government's official web portal to all federal, state and local government web resources and services.